"Pseudo-MPEC" for M14TLCi

Created 2018 Apr 24 11:18:04 UT using Find_Orb

Click here for an explanation of pseudo-MPECs

 
 Astrometry: 
     M14TLCi  C2018 04 16*5AstrometryYeI\#/Q$P8b=JyHU\Us'e.==+y.,Hlu[WDq5.#m^C41
     M14TLCi  C2018 04 16;UUeT$tj3GKxUhoaBredacted;#GjoC%see'AQpOTchoC4L!c=i0C41
     M14TLCi  C2018 04 16hg@W7[Sn(w%EGSov-XdVvbEc.?Rbt8s1sLYIw[%v(3k%@ICNEOCPC41

Station data:
(C41) MASTER-II Observatory, Kislovodsk  (N43.741685 E42.661260)  Russia.

Orbital elements:  M14TLCi
   Perihelion 2018 Jul 23.617589 +/- 50.8 TT = 14:49:19 (JD 2458323.117589)
Epoch 2018 Apr 17.0 TT = JDT 2458225.5   Earth MOID: 0.0006   AutoNEOCP
M 256.15664 +/- 120                 (J2000 ecliptic)
n   1.06377706 +/- 0.835            Peri.  120.91994 +/- 100
a   0.95039096 +/- 0.497            Node   203.74357 +/- 110
e   0.1336319 +/- 0.261             Incl.   21.12366 +/- 33
P   0.93/338.41d           H 20.9   G  0.15   U 12.6  SR
q 0.82338838 +/- 0.33    Q 1.07739355 +/- 9.7
From 3 observations 2018 Apr. 16 (13.6 min); mean residual 0".76
Residuals in arcseconds: 
180416 C41  .23+  .72+    180416 C41  .46-  1.5-    180416 C41  .23+  .73+    

Ephemerides (geocentric):
Date (UTC) HH   RA              Dec         delta   r     elong  mag " sig PA
---- -- -- --  ------------   ------------  ------ ------ -----  --- ---- ---
2018 04 24 11  23 40 34.979   +76 07 48.04  .06953 .97974  66.2 19.3  28d  77
2018 04 24 12  23 40 37.995   +76 07 52.67  .06980 .97965  66.2 19.3  28d  77
2018 04 24 13  23 40 41.007   +76 07 57.16  .07008 .97956  66.2 19.3  28d  77
2018 04 24 14  23 40 44.014   +76 08 01.53  .07035 .97946  66.2 19.3  28d  77
2018 04 24 15  23 40 47.017   +76 08 05.76  .07062 .97937  66.2 19.3  28d  77
2018 04 24 16  23 40 50.017   +76 08 09.87  .07090 .97928  66.2 19.3  28d  77
2018 04 24 17  23 40 53.013   +76 08 13.85  .07117 .97919  66.2 19.3  28d  77
2018 04 24 18  23 40 56.005   +76 08 17.70  .07144 .97909  66.1 19.3  28d  77
2018 04 24 19  23 40 58.994   +76 08 21.42  .07172 .97900  66.1 19.3  28d  77
2018 04 24 20  23 41 01.979   +76 08 25.02  .07199 .97891  66.1 19.3  29d  77
2018 04 24 21  23 41 04.962   +76 08 28.49  .07226 .97881  66.1 19.4  29d  78
2018 04 24 22  23 41 07.941   +76 08 31.85  .07254 .97872  66.1 19.4  29d  78
2018 04 24 23  23 41 10.918   +76 08 35.08  .07281 .97863  66.1 19.4  29d  78
2018 04 25 00  23 41 13.892   +76 08 38.19  .07308 .97854  66.1 19.4  29d  78
2018 04 25 01  23 41 16.863   +76 08 41.18  .07336 .97844  66.1 19.4  29d  78
2018 04 25 02  23 41 19.832   +76 08 44.05  .07363 .97835  66.1 19.4  29d  78
2018 04 25 03  23 41 22.798   +76 08 46.80  .07390 .97826  66.1 19.4  29d  78
2018 04 25 04  23 41 25.763   +76 08 49.44  .07418 .97816  66.1 19.4  29d  78
2018 04 25 05  23 41 28.725   +76 08 51.96  .07445 .97807  66.0 19.4  29d  78
2018 04 25 06  23 41 31.685   +76 08 54.37  .07472 .97798  66.0 19.4  29d  78
2018 04 25 07  23 41 34.644   +76 08 56.66  .07500 .97788  66.0 19.4  29d  78
2018 04 25 08  23 41 37.600   +76 08 58.84  .07527 .97779  66.0 19.4  29d  78
2018 04 25 09  23 41 40.555   +76 09 00.90  .07554 .97770  66.0 19.4  29d  78
2018 04 25 10  23 41 43.509   +76 09 02.86  .07581 .97760  66.0 19.5  29d  78
2018 04 25 11  23 41 46.461   +76 09 04.71  .07609 .97751  66.0 19.5  29d  78
2018 04 25 12  23 41 49.413   +76 09 06.44  .07636 .97742  66.0 19.5  29d  78
2018 04 25 13  23 41 52.362   +76 09 08.07  .07663 .97732  66.0 19.5  29d  78
2018 04 25 14  23 41 55.311   +76 09 09.59  .07691 .97723  66.0 19.5  29d  78
2018 04 25 15  23 41 58.259   +76 09 11.01  .07718 .97714  66.0 19.5  29d  78
2018 04 25 16  23 42 01.207   +76 09 12.32  .07745 .97704  66.0 19.5  29d  78
2018 04 25 17  23 42 04.153   +76 09 13.52  .07772 .97695  65.9 19.5  29d  78
2018 04 25 18  23 42 07.099   +76 09 14.62  .07800 .97686  65.9 19.5  29d  78
2018 04 25 19  23 42 10.045   +76 09 15.61  .07827 .97676  65.9 19.5  29d  78
2018 04 25 20  23 42 12.990   +76 09 16.50  .07854 .97667  65.9 19.5  29d  78
2018 04 25 21  23 42 15.935   +76 09 17.29  .07881 .97658  65.9 19.5  30d  78
2018 04 25 22  23 42 18.879   +76 09 17.98  .07909 .97648  65.9 19.5  30d  78
2018 04 25 23  23 42 21.824   +76 09 18.57  .07936 .97639  65.9 19.5  30d  78
2018 04 26 00  23 42 24.768   +76 09 19.06  .07963 .97630  65.9 19.6  30d  78
2018 04 26 01  23 42 27.713   +76 09 19.45  .07990 .97620  65.9 19.6  30d  78
2018 04 26 02  23 42 30.658   +76 09 19.74  .08018 .97611  65.9 19.6  30d  78
2018 04 26 03  23 42 33.603   +76 09 19.94  .08045 .97602  65.9 19.6  30d  78
2018 04 26 04  23 42 36.549   +76 09 20.03  .08072 .97592  65.8 19.6  30d  78
2018 04 26 05  23 42 39.495   +76 09 20.04  .08099 .97583  65.8 19.6  30d  78
2018 04 26 06  23 42 42.442   +76 09 19.94  .08127 .97574  65.8 19.6  30d  78
2018 04 26 07  23 42 45.389   +76 09 19.75  .08154 .97564  65.8 19.6  30d  78
2018 04 26 08  23 42 48.337   +76 09 19.47  .08181 .97555  65.8 19.6  30d  78
2018 04 26 09  23 42 51.286   +76 09 19.09  .08208 .97545  65.8 19.6  30d  78
2018 04 26 10  23 42 54.236   +76 09 18.63  .08236 .97536  65.8 19.6  30d  78